.
WxDataArchive / Data Records for 2009-08-23
2009-08-22 August 2009 2009-08-24

Data Records for Sunday, 23 August 2009

Time	Temp	Chill	HIndex	Humid	Dewpt	 Wind 	HiWind	WindDir	Rain 	Barom 
-----	----	-----	------	-----	-----	------	------	-------	-----	----- 
00:00	59.5	59.5	59.5	95	58.1	0	0	---	0.00	30.007 
00:05	59.5	59.5	59.5	95	58.1	0	0	---	0.00	30.007 
00:10	59.5	59.5	59.5	95	58.1	0	0	---	0.00	30.007 
00:15	59.5	59.5	59.5	95	58.1	0	1	112	0.00	30.011 
00:20	59.5	59.5	59.5	95	58.1	0	0	---	0.00	30.011 
00:25	59.5	59.5	59.5	95	58.1	0	0	---	0.00	30.011 
00:30	59.5	59.5	59.5	95	58.1	0	1	112	0.00	30.007 
00:35	59.5	59.5	59.5	95	58.1	0	1	112	0.00	30.007 
00:40	59.3	59.3	59.3	95	57.9	0	1	112	0.00	30.007 
00:45	59.3	59.3	59.3	94	57.6	0	0	---	0.00	30.002 
00:50	59.3	59.3	59.3	94	57.6	0	1	112	0.00	30.002 
00:55	59.3	59.3	59.3	94	57.6	0	0	---	0.00	30.002 
01:00	59.3	59.3	59.3	94	57.6	0	0	---	0.00	29.999 
01:05	59.5	59.5	59.5	94	57.8	0	0	---	0.00	29.999 
01:10	59.5	59.5	59.5	94	57.8	0	1	112	0.00	29.999 
01:15	59.5	59.5	59.5	94	57.8	0	0	---	0.00	30.001 
01:20	59.5	59.5	59.5	94	57.8	0	1	112	0.00	30.001 
01:25	59.5	59.5	59.5	94	57.8	0	0	---	0.00	30.001 
01:30	59.5	59.5	59.5	94	57.8	0	1	112	0.00	30.003 
01:35	59.5	59.5	59.5	94	57.8	0	0	---	0.00	30.003 
01:40	59.5	59.5	59.5	94	57.8	0	0	---	0.00	30.003 
01:45	59.5	59.5	59.5	94	57.8	0	1	112	0.00	29.999 
01:50	59.5	59.5	59.5	94	57.8	0	0	---	0.00	29.999 
01:55	59.5	59.5	59.5	94	57.8	0	0	---	0.00	29.999 
02:00	59.5	59.5	59.5	94	57.8	0	0	---	0.00	30.003 
02:05	59.5	59.5	59.5	94	57.8	0	0	---	0.00	30.003 
02:10	59.5	59.5	59.5	94	57.8	0	0	---	0.00	30.003 
02:15	59.5	59.5	59.5	94	57.8	0	0	---	0.00	30.003 
02:20	59.5	59.5	59.5	94	57.8	0	1	112	0.00	30.003 
02:25	59.5	59.5	59.5	94	57.8	0	0	---	0.00	30.003 
02:30	59.5	59.5	59.5	94	57.8	0	0	---	0.00	30.000 
02:35	59.5	59.5	59.5	94	57.8	0	1	112	0.00	30.000 
02:40	59.5	59.5	59.5	94	57.8	0	0	---	0.00	30.000 
02:45	59.5	59.5	59.5	94	57.8	0	0	---	0.00	30.000 
02:50	59.5	59.5	59.5	94	57.8	0	1	112	0.00	30.000 
02:55	59.5	59.5	59.5	94	57.8	0	0	---	0.00	30.000 
03:00	59.6	59.6	59.6	94	57.9	0	0	---	0.00	30.001 
03:05	59.6	59.6	59.6	94	57.9	0	0	---	0.00	30.001 
03:10	59.6	59.6	59.6	94	57.9	0	0	---	0.00	30.001 
03:15	59.6	59.6	59.6	94	57.9	0	0	---	0.00	30.008 
03:20	59.6	59.6	59.6	94	57.9	0	0	---	0.00	30.008 
03:25	59.6	59.6	59.6	94	57.9	0	0	---	0.00	30.008 
03:30	59.6	59.6	59.6	94	57.9	0	0	---	0.00	30.004 
03:35	59.6	59.6	59.6	94	57.9	0	0	---	0.00	30.004 
03:40	59.6	59.6	59.6	94	57.9	0	0	---	0.00	30.004 
03:45	59.6	59.6	59.6	94	57.9	0	0	---	0.00	30.002 
03:50	59.6	59.6	59.6	94	57.9	0	0	---	0.00	30.002 
03:55	59.6	59.6	59.6	94	57.9	0	0	---	0.00	30.002 
04:00	59.6	59.6	59.6	94	57.9	0	0	---	0.00	30.000 
04:05	59.6	59.6	59.6	94	57.9	0	0	---	0.00	30.000 
04:10	59.6	59.6	59.6	94	57.9	0	0	---	0.00	30.000 
04:15	59.6	59.6	59.6	94	57.9	0	1	112	0.00	30.001 
04:20	59.5	59.5	59.5	94	57.8	0	0	---	0.00	30.001 
04:25	59.5	59.5	59.5	94	57.8	0	0	---	0.00	30.001 
04:30	59.5	59.5	59.5	94	57.8	0	0	---	0.00	30.000 
04:35	59.5	59.5	59.5	94	57.8	0	0	---	0.00	30.000 
04:40	59.5	59.5	59.5	94	57.8	0	0	---	0.00	30.000 
04:45	59.5	59.5	59.5	94	57.8	0	0	---	0.00	30.000 
04:50	59.5	59.5	59.5	94	57.8	0	0	---	0.00	30.000 
04:55	59.5	59.5	59.5	94	57.8	0	0	---	0.00	30.000 
05:00	59.5	59.5	59.5	94	57.8	0	0	---	0.00	30.001 
05:05	59.3	59.3	59.3	94	57.6	0	0	---	0.00	30.001 
05:10	59.3	59.3	59.3	94	57.6	0	0	---	0.00	30.001 
05:15	59.3	59.3	59.3	94	57.6	0	1	112	0.00	30.005 
05:20	59.3	59.3	59.3	94	57.6	0	0	---	0.00	30.005 
05:25	59.3	59.3	59.3	94	57.6	0	0	---	0.00	30.005 
05:30	59.3	59.3	59.3	94	57.6	0	0	---	0.00	30.012 
05:35	59.3	59.3	59.3	94	57.6	0	0	---	0.00	30.012 
05:40	59.3	59.3	59.3	94	57.6	0	0	---	0.00	30.012 
05:45	59.3	59.3	59.3	94	57.6	0	0	---	0.00	30.016 
05:50	59.3	59.3	59.3	94	57.6	0	0	---	0.00	30.016 
05:55	59.3	59.3	59.3	94	57.6	0	0	---	0.00	30.016 
06:00	59.3	59.3	59.3	94	57.6	0	0	---	0.00	30.017 
06:05	59.3	59.3	59.3	94	57.6	0	0	---	0.00	30.017 
06:10	59.3	59.3	59.3	94	57.6	0	0	---	0.00	30.017 
06:15	59.3	59.3	59.3	94	57.6	0	0	---	0.00	30.014 
06:20	59.3	59.3	59.3	94	57.6	0	0	---	0.00	30.014 
06:25	59.3	59.3	59.3	94	57.6	0	0	---	0.00	30.014 
06:30	59.3	59.3	59.3	94	57.6	0	0	---	0.00	30.019 
06:35	59.3	59.3	59.3	94	57.6	0	0	---	0.00	30.019 
06:40	59.3	59.3	59.3	94	57.6	0	0	---	0.00	30.019 
06:45	59.3	59.3	59.3	94	57.6	0	0	---	0.00	30.023 
06:50	59.3	59.3	59.3	94	57.6	0	0	---	0.00	30.023 
06:55	59.3	59.3	59.3	94	57.6	0	0	---	0.00	30.023 
07:00	59.3	59.3	59.3	94	57.6	0	0	---	0.00	30.029 
07:05	59.3	59.3	59.3	94	57.6	0	0	---	0.00	30.029 
07:10	59.3	59.3	59.3	94	57.6	0	0	---	0.00	30.029 
07:15	59.3	59.3	59.3	93	57.3	0	0	---	0.00	30.033 
07:20	59.3	59.3	59.3	93	57.3	0	0	---	0.00	30.033 
07:25	59.5	59.5	59.5	93	57.5	0	0	---	0.00	30.033 
07:30	59.5	59.5	59.5	93	57.5	0	0	---	0.00	30.037 
07:35	59.5	59.5	59.5	93	57.5	0	0	---	0.00	30.037 
07:40	59.6	59.6	59.6	93	57.6	0	0	---	0.00	30.037 
07:45	59.6	59.6	59.6	93	57.6	0	0	---	0.00	30.040 
07:50	59.6	59.6	59.6	93	57.6	0	0	---	0.00	30.040 
07:55	59.8	59.8	59.8	92	57.5	0	0	---	0.00	30.040 
08:00	59.8	59.8	59.8	92	57.5	0	0	---	0.00	30.046 
08:05	59.8	59.8	59.8	92	57.5	0	1	112	0.00	30.046 
08:10	59.9	59.9	59.9	92	57.6	0	1	112	0.00	30.046 
08:15	59.9	59.9	59.9	92	57.6	0	0	---	0.00	30.050 
08:20	60.1	60.1	60.1	92	57.8	0	0	---	0.00	30.050 
08:25	60.2	60.2	60.2	92	57.9	0	2	112	0.00	30.050 
08:30	60.4	60.4	60.4	92	58.1	0	0	---	0.00	30.057 
08:35	60.4	60.4	60.4	92	58.1	0	1	112	0.00	30.057 
08:40	60.4	60.4	60.4	92	58.1	0	0	---	0.00	30.057 
08:45	60.5	60.5	60.5	92	58.2	0	1	112	0.00	30.062 
08:50	60.5	60.5	60.5	92	58.2	0	0	---	0.00	30.062 
08:55	60.7	60.7	60.7	92	58.4	0	0	---	0.00	30.062 
09:00	60.9	60.9	60.9	92	58.6	0	1	112	0.00	30.065 
09:05	60.9	60.9	60.9	92	58.6	0	1	112	0.00	30.065 
09:10	61.0	61.0	61.0	92	58.7	0	0	---	0.00	30.065 
09:15	60.9	60.9	60.9	91	58.3	0	2	112	0.00	30.067 
09:20	61.0	61.0	61.0	91	58.4	0	0	---	0.00	30.067 
09:25	61.2	61.2	61.2	91	58.5	0	0	---	0.00	30.067 
09:30	61.3	61.3	61.3	91	58.6	0	1	112	0.00	30.068 
09:35	61.6	61.6	61.6	90	58.6	0	1	112	0.00	30.068 
09:40	61.8	61.8	61.8	89	58.5	0	1	112	0.00	30.068 
09:45	62.0	62.0	62.0	88	58.4	0	1	112	0.00	30.072 
09:50	62.1	62.1	62.1	88	58.5	0	1	112	0.00	30.072 
09:55	62.4	62.4	62.4	88	58.8	0	0	---	0.00	30.072 
10:00	62.6	62.6	62.6	87	58.7	0	2	112	0.00	30.072 
10:05	62.7	62.7	62.7	87	58.8	0	0	---	0.00	30.072 
10:10	62.9	62.9	62.9	86	58.6	0	1	112	0.00	30.072 
10:15	63.1	63.1	63.1	84	58.2	0	1	112	0.00	30.077 
10:20	63.4	63.4	63.4	84	58.5	0	0	---	0.00	30.077 
10:25	63.5	63.5	63.5	84	58.6	0	1	112	0.00	30.077 
10:30	63.7	63.7	63.7	83	58.4	0	1	112	0.00	30.078 
10:35	63.9	63.9	63.9	83	58.6	0	1	112	0.00	30.078 
10:40	63.9	63.9	63.9	80	57.6	0	2	112	0.00	30.078 
10:45	64.2	64.2	64.2	80	57.9	0	2	112	0.00	30.078 
10:50	64.3	64.3	64.3	80	58.0	0	0	---	0.00	30.078 
10:55	64.5	64.5	64.5	80	58.2	0	1	112	0.00	30.078 
11:00	64.7	64.7	64.7	79	58.0	0	2	112	0.00	30.080 
11:05	64.7	64.7	64.7	79	58.0	0	1	112	0.00	30.080 
11:10	64.5	64.5	64.5	78	57.5	0	1	112	0.00	30.080 
11:15	64.7	64.7	64.7	78	57.7	0	1	112	0.00	30.080 
11:20	65.5	65.5	65.5	78	58.5	0	1	112	0.00	30.080 
11:25	65.6	65.6	65.6	75	57.5	0	2	112	0.00	30.080 
11:30	65.6	65.6	65.6	76	57.8	0	1	112	0.00	30.080 
11:35	65.8	65.8	65.8	77	58.4	0	2	90	0.00	30.080 
11:40	65.6	65.6	65.6	73	56.7	0	2	90	0.00	30.080 
11:45	65.6	65.6	65.6	74	57.1	0	1	90	0.00	30.080 
11:50	65.6	65.6	65.6	74	57.1	0	1	90	0.00	30.080 
11:55	66.1	66.1	66.1	73	57.2	0	1	90	0.00	30.080 
12:00	66.4	66.4	66.4	72	57.1	0	3	90	0.00	30.079 
12:05	66.8	66.8	66.8	73	57.9	0	3	22	0.00	30.079 
12:10	66.4	66.4	66.4	70	56.3	0	1	22	0.00	30.079 
12:15	66.3	66.3	66.3	71	56.6	0	1	22	0.00	30.084 
12:20	65.8	65.8	65.8	72	56.5	0	2	22	0.00	30.084 
12:25	65.6	65.6	65.6	73	56.7	0	2	338	0.00	30.084 
12:30	65.8	65.8	65.8	71	56.1	0	2	338	0.00	30.087 
12:35	66.1	66.1	66.1	69	55.6	0	1	338	0.00	30.087 
12:40	66.4	66.4	66.4	69	55.9	0	1	338	0.00	30.087 
12:45	66.6	66.6	66.6	69	56.1	0	1	338	0.00	30.085 
12:50	66.4	66.4	66.4	70	56.3	0	1	338	0.00	30.085 
12:55	66.3	66.3	66.3	71	56.6	0	1	338	0.00	30.085 
13:00	66.4	66.4	66.4	72	57.1	0	2	338	0.00	30.084 
13:05	66.4	66.4	66.4	72	57.1	0	1	338	0.00	30.084 
13:10	66.3	66.3	66.3	72	57.0	0	1	338	0.00	30.084 
13:15	66.1	66.1	66.1	73	57.2	0	2	338	0.00	30.080 
13:20	66.0	66.0	66.0	73	57.1	0	2	338	0.00	30.080 
13:25	65.8	65.8	65.8	74	57.3	0	3	0	0.00	30.080 
13:30	66.3	66.3	66.3	74	57.8	0	2	248	0.00	30.078 
13:35	66.8	66.8	66.8	69	56.3	1	2	292	0.00	30.078 
13:40	67.3	67.3	67.3	68	56.4	0	3	292	0.00	30.078 
13:45	67.6	67.6	67.6	67	56.2	1	3	292	0.00	30.074 
13:50	67.6	67.6	67.6	71	57.9	0	2	292	0.00	30.074 
13:55	67.1	67.1	67.1	72	57.8	0	1	292	0.00	30.074 
14:00	66.8	66.8	66.8	74	58.2	0	1	292	0.00	30.076 
14:05	66.9	66.9	66.9	73	58.0	0	2	90	0.00	30.076 
14:10	66.9	66.9	66.9	70	56.8	0	2	90	0.00	30.076 
14:15	67.1	67.1	67.1	69	56.6	0	0	---	0.00	30.076 
14:20	67.8	67.8	67.8	68	56.8	0	0	---	0.00	30.076 
14:25	68.8	68.8	68.8	69	58.2	0	2	90	0.00	30.076 
14:30	69.6	69.6	69.6	65	57.3	1	3	112	0.00	30.072 
14:35	69.9	69.9	69.9	64	57.2	0	2	135	0.00	30.072 
14:40	69.8	69.8	69.8	63	56.6	1	3	270	0.00	30.072 
14:45	69.3	69.3	69.3	64	56.6	0	2	270	0.00	30.072 
14:50	68.9	68.9	68.9	65	56.6	0	2	270	0.00	30.072 
14:55	68.9	68.9	68.9	65	56.6	0	1	270	0.00	30.072 
15:00	69.3	69.3	69.3	65	57.0	0	1	270	0.00	30.071 
15:05	69.8	69.8	69.8	65	57.5	0	1	270	0.00	30.071 
15:10	69.9	69.9	69.9	65	57.6	0	2	270	0.00	30.071 
15:15	69.6	69.6	69.6	65	57.3	0	2	315	0.00	30.063 
15:20	69.3	69.3	69.3	68	58.3	0	1	315	0.00	30.063 
15:25	68.9	68.9	68.9	67	57.5	0	1	315	0.00	30.063 
15:30	68.8	68.8	68.8	65	56.5	0	1	315	0.00	30.066 
15:35	68.6	68.6	68.6	67	57.2	0	1	315	0.00	30.066 
15:40	68.6	68.6	68.6	66	56.8	0	1	315	0.00	30.066 
15:45	68.8	68.8	68.8	66	57.0	0	2	315	0.00	30.064 
15:50	68.9	68.9	68.9	66	57.1	0	1	315	0.00	30.064 
15:55	69.3	69.3	69.3	66	57.4	0	1	315	0.00	30.064 
16:00	69.3	69.3	69.3	65	57.0	0	2	315	0.00	30.064 
16:05	68.9	68.9	68.9	65	56.6	0	0	---	0.00	30.064 
16:10	68.8	68.8	68.8	65	56.5	0	0	---	0.00	30.064 
16:15	68.6	68.6	68.6	66	56.8	0	0	---	0.00	30.064 
16:20	68.6	68.6	68.6	67	57.2	0	0	---	0.00	30.064 
16:25	68.6	68.6	68.6	66	56.8	0	0	---	0.00	30.064 
16:30	68.6	68.6	68.6	67	57.2	0	0	---	0.00	30.060 
16:35	68.8	68.8	68.8	67	57.4	0	0	---	0.00	30.060 
16:40	68.8	68.8	68.8	66	57.0	0	0	---	0.00	30.060 
16:45	68.9	68.9	68.9	67	57.5	0	0	---	0.00	30.059 
16:50	69.1	69.1	69.1	65	56.8	0	0	---	0.00	30.059 
16:55	69.3	69.3	69.3	66	57.4	0	0	---	0.00	30.059 
17:00	69.4	69.4	69.4	66	57.5	0	0	---	0.00	30.061 
17:05	69.4	69.4	69.4	65	57.1	0	0	---	0.00	30.061 
17:10	69.4	69.4	69.4	64	56.7	0	0	---	0.00	30.061 
17:15	69.6	69.6	69.6	66	57.7	0	0	---	0.00	30.065 
17:20	69.8	69.8	69.8	65	57.5	0	0	---	0.00	30.065 
17:25	69.8	69.8	69.8	65	57.5	0	0	---	0.00	30.065 
17:30	69.9	69.9	69.9	65	57.6	0	0	---	0.00	30.064 
17:35	69.9	69.9	69.9	65	57.6	0	0	---	0.00	30.064 
17:40	69.9	69.9	69.9	67	58.4	0	0	---	0.00	30.064 
17:45	69.8	69.8	69.8	64	57.1	0	0	---	0.00	30.064 
17:50	69.6	69.6	69.6	66	57.7	0	0	---	0.00	30.064 
17:55	69.4	69.4	69.4	66	57.5	0	0	---	0.00	30.064 
18:00	69.3	69.3	69.3	67	57.9	0	0	---	0.00	30.065 
18:05	69.1	69.1	69.1	67	57.7	0	0	---	0.00	30.065 
18:10	68.9	68.9	68.9	68	57.9	0	0	---	0.00	30.065 
18:15	68.9	68.9	68.9	69	58.3	0	0	---	0.00	30.072 
18:20	68.8	68.8	68.8	69	58.2	0	0	---	0.00	30.072 
18:25	68.6	68.6	68.6	69	58.0	0	0	---	0.00	30.072 
18:30	68.6	68.6	68.6	70	58.4	0	0	---	0.00	30.074 
18:35	68.6	68.6	68.6	70	58.4	0	0	---	0.00	30.074 
18:40	68.6	68.6	68.6	71	58.8	0	0	---	0.00	30.074 
18:45	68.4	68.4	68.4	72	59.0	0	0	---	0.00	30.076 
18:50	68.4	68.4	68.4	72	59.0	0	0	---	0.00	30.076 
18:55	68.4	68.4	68.4	72	59.0	0	0	---	0.00	30.076 
19:00	68.4	68.4	68.4	73	59.4	0	0	---	0.00	30.077 
19:05	68.4	68.4	68.4	73	59.4	0	0	---	0.00	30.077 
19:10	68.3	68.3	68.3	73	59.3	0	0	---	0.00	30.077 
19:15	68.3	68.3	68.3	73	59.3	0	0	---	0.00	30.075 
19:20	68.1	68.1	68.1	73	59.1	0	0	---	0.00	30.075 
19:25	68.1	68.1	68.1	73	59.1	0	0	---	0.00	30.075 
19:30	67.9	67.9	67.9	73	58.9	0	0	---	0.00	30.075 
19:35	67.8	67.8	67.8	73	58.8	0	0	---	0.00	30.075 
19:40	67.6	67.6	67.6	73	58.6	0	0	---	0.00	30.075 
19:45	67.4	67.4	67.4	74	58.8	0	0	---	0.00	30.075 
19:50	67.3	67.3	67.3	74	58.7	0	0	---	0.00	30.075 
19:55	67.3	67.3	67.3	74	58.7	0	0	---	0.00	30.075 
20:00	67.1	67.1	67.1	75	58.9	0	0	---	0.00	30.078 
20:05	67.1	67.1	67.1	75	58.9	0	0	---	0.00	30.078 
20:10	66.9	66.9	66.9	75	58.7	0	0	---	0.00	30.078 
20:15	66.9	66.9	66.9	76	59.1	0	0	---	0.00	30.078 
20:20	66.9	66.9	66.9	76	59.1	0	0	---	0.00	30.078 
20:25	66.8	66.8	66.8	76	59.0	0	0	---	0.00	30.078 
20:30	66.8	66.8	66.8	77	59.3	0	0	---	0.00	30.078 
20:35	66.6	66.6	66.6	77	59.2	0	0	---	0.00	30.078 
20:40	66.6	66.6	66.6	77	59.2	0	0	---	0.00	30.078 
20:45	66.4	66.4	66.4	78	59.3	0	0	---	0.00	30.083 
20:50	66.3	66.3	66.3	78	59.2	0	0	---	0.00	30.083 
20:55	66.1	66.1	66.1	79	59.4	0	0	---	0.00	30.083 
21:00	66.0	66.0	66.0	79	59.3	0	0	---	0.00	30.084 
21:05	65.8	65.8	65.8	80	59.5	0	0	---	0.00	30.084 
21:10	65.6	65.6	65.6	80	59.3	0	0	---	0.00	30.084 
21:15	65.5	65.5	65.5	81	59.5	0	0	---	0.00	30.086 
21:20	65.2	65.2	65.2	81	59.2	0	0	---	0.00	30.086 
21:25	64.8	64.8	64.8	82	59.2	0	0	---	0.00	30.086 
21:30	64.5	64.5	64.5	83	59.2	0	0	---	0.00	30.086 
21:35	64.2	64.2	64.2	83	58.9	0	0	---	0.00	30.086 
21:40	63.9	63.9	63.9	84	59.0	0	0	---	0.00	30.086 
21:45	63.7	63.7	63.7	85	59.1	0	0	---	0.00	30.091 
21:50	63.4	63.4	63.4	85	58.8	0	0	---	0.00	30.091 
21:55	63.1	63.1	63.1	86	58.8	0	0	---	0.00	30.091 
22:00	62.9	62.9	62.9	86	58.6	0	0	---	0.00	30.094 
22:05	62.6	62.6	62.6	87	58.7	0	0	---	0.00	30.094 
22:10	62.4	62.4	62.4	88	58.8	0	0	---	0.00	30.094 
22:15	62.1	62.1	62.1	88	58.5	0	0	---	0.00	30.100 
22:20	62.0	62.0	62.0	89	58.7	0	0	---	0.00	30.100 
22:25	61.8	61.8	61.8	90	58.8	0	0	---	0.00	30.100 
22:30	61.8	61.8	61.8	90	58.8	0	0	---	0.00	30.106 
22:35	61.6	61.6	61.6	90	58.6	0	0	---	0.00	30.106 
22:40	61.6	61.6	61.6	91	58.9	0	0	---	0.00	30.106 
22:45	61.5	61.5	61.5	91	58.8	0	0	---	0.00	30.108 
22:50	61.5	61.5	61.5	91	58.8	0	0	---	0.00	30.108 
22:55	61.3	61.3	61.3	91	58.6	0	0	---	0.00	30.108 
23:00	61.3	61.3	61.3	92	59.0	0	0	---	0.00	30.109 
23:05	61.3	61.3	61.3	92	59.0	0	0	---	0.00	30.109 
23:10	61.3	61.3	61.3	92	59.0	0	0	---	0.00	30.109 
23:15	61.3	61.3	61.3	92	59.0	0	0	---	0.00	30.110 
23:20	61.3	61.3	61.3	92	59.0	0	0	---	0.00	30.110 
23:25	61.3	61.3	61.3	92	59.0	0	0	---	0.00	30.110 
23:30	61.5	61.5	61.5	92	59.2	0	0	---	0.00	30.108 
23:35	61.3	61.3	61.3	92	59.0	0	0	---	0.00	30.108 
23:40	61.3	61.3	61.3	92	59.0	0	0	---	0.00	30.108 
23:45	61.3	61.3	61.3	92	59.0	0	0	---	0.00	30.110 
23:50	61.2	61.2	61.2	92	58.9	0	0	---	0.00	30.110 
23:55	61.2	61.2	61.2	92	58.9	0	0	---	0.00	30.110 

CoCoRaHS
IN-AL-39
A2 Web Hosting
Creative Commons License
GoDaddy
search engine by freefind advanced

loaded 2018-11-19 18:39:06 • last modified 2010-11-18 10:43:29
Privacy PolicyDisclaimer
• wx.awcolley.com is powered by PmWiki v.2002016 •
• all content (unless otherwise noted) © 2018 A W Colley